Tracking 19847 objects as of 16-Sep-2019
HD Live streaming from Space Station
objects crossing your sky now

SL-14 DEB

Track SL-14 DEB now!
10-day predictions


NORAD ID: 19174
Int'l Code: 1978-100R
Perigee: 1,476.2 km
Apogee: 1,706.4 km
Inclination: 81.9 °
Period: 117.8 minutes
Semi major axis: 7962 km
RCS: 0.0241 m2 (small)
Launch date: October 26, 1978
Source: Commonwealth of Independent States (former USSR) (CIS)
Launch site: PLESETSK MISSILE AND SPACE COMPLEX (PKMTR)

Note: This is SATELLITE DEBRIS
aabbcc
Your satellite tracking list
Your tracking list is empty




NASA's NSSDC Master Catalog

Two Line Element Set (TLE):
1 19174U 78100R   19258.25893609 -.00000027  00000-0 -31874-3 0  9992
2 19174  81.9076 178.4371 0144530 200.9828 317.5466 12.21924462397613
Source of the keplerian elements: AFSPC